Location: Marstown
(39.5056°N, 77.0820°W)
Time: 14:09:37
(UTC-04:00)

Hubble Space Telescope - Visible Passes

Search period start: 16 July 2018 00:00
Search period end: 26 July 2018 00:00
Orbit: 537 x 541 km, 28.5° (Epoch: 15 July)

Date Brightness Start Highest point End Pass type
(mag) Time Alt. Az. Time Alt. Az. Time Alt. Az.
16 Jul 3.0 04:16:12 11° SSE 04:16:12 11° SSE 04:17:25 10° SSE visible
17 Jul 3.0 04:06:19 12° SSE 04:06:19 12° SSE 04:07:34 10° SE visible
18 Jul 3.0 03:56:28 13° SSE 03:56:28 13° SSE 03:57:27 10° SE visible
19 Jul 3.1 03:46:41 12° SE 03:46:41 12° SE 03:47:13 10° SE visible
19 Jul 2.5 05:22:34 10° SW 05:25:16 17° S 05:27:57 10° SE visible
20 Jul 2.6 05:12:20 10° SW 05:14:48 16° S 05:17:22 10° SSE visible
21 Jul 2.6 05:02:44 12° SW 05:04:20 15° S 05:06:42 10° SSE visible
22 Jul 2.6 04:53:17 13° SSW 04:53:50 14° SSW 04:55:55 10° SSE visible
23 Jul 2.9 04:44:00 12° S 04:44:00 12° S 04:44:58 10° S visible
